Wind_Speed
44 40 37 38 39 41 43 45 47 49 50 51 50 45 43 49 49 53 53 56 55 56 56 55 53 48 44 43 33 30 10 21 23 36 46 52 58 57 60 61 58 58 56
44 41 40 40 41 45 47 50 52 52 53 53 51 49 52 54 57 58 59 61 61 61 62 59 54 51 38 42 23 14 13 30 37 46 52 57 52 53 54 59 56 51 60
44 42 42 43 46 49 52 55 56 55 55 54 52 54 57 59 63 65 66 66 67 67 67 63 61 55 37 35 25 25 33 41 47 52 56 59 56 53 53 57 60 60 64
45 47 48 50 53 56 58 59 59 57 56 55 57 59 62 65 68 70 71 72 73 72 70 70 63 54 47 43 31 39 45 52 58 62 64 63 66 61 67 67 67 75 72
48 51 54 56 59 61 63 62 61 61 60 62 65 67 70 71 74 76 77 79 80 78 78 74 73 66 53 44 37 34 47 55 65 70 72 74 77 76 76 74 79 78 78
56 58 61 63 66 67 66 65 64 66 69 70 73 75 76 78 80 83 84 85 86 86 83 80 77 72 68 55 40 32 42 54 60 77 81 78 84 83 83 81 83 82 85
62 65 67 70 70 69 71 71 73 75 77 79 81 83 85 86 87 88 89 90 91 89 89 86 81 75 67 61 55 49 46 53 62 68 82 90 86 93 93 96 97 95 97
69 71 72 72 72 74 75 77 80 83 85 88 90 90 92 94 95 96 97 97 97 96 91 86 80 77 76 67 64 58 57 58 62 69 77 78 93 98 105 106 109 110 107
73 74 75 76 79 80 83 86 88 90 93 95 96 97 100 101 102 102 102 102 100 98 95 90 86 82 79 76 71 67 60 60 68 70 75 81 84 87 100 109 115 117 117
80 81 83 86 87 88 91 93 96 98 101 102 105 105 106 107 107 107 105 105 103 102 100 96 90 90 86 77 74 72 71 67 70 74 74 77 86 88 87 91 102 110 115
84 86 90 93 94 96 99 101 103 104 106 107 109 109 109 109 110 111 111 109 108 109 108 103 99 94 87 83 78 77 76 77 76 77 78 80 81 87 92 92 91 92 97
91 92 94 96 97 98 100 102 104 104 105 108 108 111 113 115 117 117 117 118 118 116 110 107 103 97 92 90 86 80 82 82 86 84 84 84 85 84 88 93 93 94 92
89 89 94 97 98 99 102 106 108 110 111 114 115 118 121 121 118 122 125 124 121 121 120 113 104 100 96 92 91 85 82 85 88 90 91 90 89 86 86 88 92 93 94
90 94 100 105 107 109 108 110 110 113 118 121 121 123 127 130 129 125 126 125 120 117 117 110 105 102 101 97 95 91 88 85 88 91 93 91 92 91 88 87 87 90 92
98 99 103 105 108 113 114 117 121 126 127 126 124 126 129 131 131 128 123 121 119 113 112 110 107 104 102 101 97 92 87 87 87 89 92 92 92 90 92 89 88 86 86
113 114 116 117 118 119 120 121 124 128 131 135 135 133 134 136 133 128 126 121 118 117 115 113 106 102 102 98 96 92 86 86 86 88 90 92 91 90 91 88 88 87 83
117 119 120 122 125 127 130 133 133 136 138 140 140 137 138 137 136 134 127 121 117 114 110 105 104 98 98 97 94 94 89 86 85 85 87 89 91 90 88 90 87 86 84
121 121 123 125 127 129 133 136 137 139 141 138 138 137 132 125 119 114 114 110 106 103 99 98 94 92 90 91 92 90 89 87 86 86 87 87 90 90 90 89 88 85 84
122 125 127 129 131 133 137 139 139 138 136 132 128 124 123 118 110 106 104 100 99 97 93 90 88 86 85 88 88 87 86 88 88 87 88 90 90 93 92 86 84 85 84
126 129 131 133 136 137 137 137 136 130 125 123 119 116 113 110 106 104 101 98 95 90 88 87 84 82 81 82 83 84 82 82 83 86 87 90 93 94 94 90 86 83 84
125 129 132 133 134 133 131 127 122 120 119 116 113 109 108 104 102 98 96 93 91 86 83 79 78 77 76 76 77 77 78 79 79 81 82 85 88 90 92 88 85 81 82
128 128 128 126 125 121 122 121 117 115 111 109 106 104 100 97 97 94 90 86 83 79 77 74 71 71 71 70 71 71 71 71 73 76 80 83 87 87 89 90 88 84 80
128 123 120 115 114 117 117 113 108 105 101 99 93 91 93 92 88 83 79 77 76 74 71 70 67 67 68 67 68 67 64 63 64 68 74 80 85 88 88 90 88 86 81
114 115 116 115 114 111 104 101 98 96 92 88 86 83 79 79 79 75 70 68 68 69 65 60 59 58 59 61 62 59 57 56 58 61 65 70 75 81 85 88 88 86 83
116 115 112 109 104 98 95 93 90 85 81 79 77 74 70 68 66 66 64 60 58 58 56 54 52 53 54 58 58 54 52 52 53 54 58 64 68 73 77 80 82 84 82
113 109 104 97 92 89 86 83 78 74 71 69 68 65 61 58 56 53 55 56 52 52 49 47 45 46 47 52 51 47 48 48 50 50 54 57 62 66 70 72 72 76 79
Wind_Direction
290 284 277 274 273 274 277 279 284 290 294 295 294 290 290 293 293 295 297 301 303 306 306 307 311 322 336 332 320 323 332 240 246 231 224 216 209 212 215 221 223 218 227
287 281 276 275 274 277 279 282 287 291 294 294 292 290 292 294 294 297 298 300 301 304 305 306 308 318 327 332 295 268 224 213 218 211 209 209 212 216 219 221 217 212 204
282 280 277 275 277 280 282 286 289 291 292 292 291 291 292 293 294 295 297 298 300 301 301 302 305 307 313 327 279 245 221 215 212 214 218 210 213 208 211 212 207 210 208
280 278 277 278 279 280 284 286 287 290 290 289 289 289 291 291 294 295 296 297 298 297 298 301 302 303 305 307 306 247 236 223 224 222 217 220 222 225 217 214 215 216 219
277 276 276 278 280 283 285 288 290 289 289 290 290 291 292 293 294 294 295 296 297 298 299 301 302 301 296 293 292 281 244 238 234 224 223 221 223 224 231 231 227 225 231
279 280 281 283 283 285 287 289 289 288 288 288 291 292 293 293 293 295 295 296 297 299 300 301 301 301 300 292 278 265 263 247 240 232 230 230 224 225 227 228 235 238 240
281 282 283 285 287 288 288 289 288 288 289 292 293 293 293 293 293 294 295 295 296 297 299 299 299 298 297 293 287 269 260 249 244 240 234 232 231 228 227 228 229 232 241
284 283 283 284 285 286 287 288 289 290 290 290 292 293 293 294 295 295 296 296 297 297 297 297 297 296 297 291 288 276 267 257 251 241 241 239 237 234 232 230 230 231 235
283 283 284 286 286 288 288 288 289 291 292 292 293 292 292 293 294 294 294 294 294 294 295 295 295 294 294 291 290 281 266 259 255 251 244 244 242 239 237 235 234 237 239
285 286 288 287 288 289 289 290 290 290 290 290 291 292 291 292 292 292 293 292 292 293 293 294 294 293 291 286 284 280 276 264 257 255 255 249 245 245 242 240 242 241 242
286 287 287 288 288 289 290 289 290 290 291 291 291 292 291 291 292 291 291 291 291 292 293 292 292 290 287 285 281 278 273 265 258 255 252 251 250 246 246 245 245 245 247
288 289 290 291 291 290 290 291 291 289 289 290 290 290 290 290 289 289 289 290 290 291 290 290 289 288 286 283 278 274 266 262 259 256 254 252 251 250 245 245 244 246 247
284 287 287 287 288 288 288 291 290 289 288 287 286 286 286 286 286 286 287 288 288 288 288 287 286 284 284 281 277 272 268 262 257 257 256 255 254 253 250 246 244 244 246
286 286 288 289 289 288 288 289 288 288 288 288 287 287 288 287 287 287 287 287 287 286 286 287 286 283 281 279 275 271 267 263 258 256 256 255 254 254 253 250 247 244 244
287 287 287 288 291 291 290 289 288 287 288 288 288 289 288 289 289 289 289 288 287 286 286 285 284 281 279 280 274 267 265 263 259 256 256 256 255 254 254 251 248 246 243
290 290 289 290 291 290 289 290 289 289 289 289 291 291 291 290 291 290 289 287 286 286 285 284 280 277 278 276 274 269 263 260 259 257 255 255 254 255 253 252 251 247 245
292 292 292 291 291 290 289 290 290 291 292 292 291 291 290 290 290 289 287 287 286 284 282 281 280 278 277 275 271 267 264 260 257 254 254 253 252 253 253 251 250 249 246
289 290 290 291 291 291 291 291 291 292 292 291 291 291 289 288 287 287 288 287 285 284 284 284 282 278 276 274 272 268 262 260 256 254 252 251 251 252 252 251 249 247 246
289 288 288 288 288 288 289 291 292 292 292 292 291 290 291 291 291 290 288 287 285 285 284 283 281 279 275 272 271 269 264 259 256 254 252 250 248 249 250 251 249 247 244
290 290 291 291 292 293 293 293 293 292 291 289 289 289 290 289 290 289 289 287 287 285 283 282 278 277 273 271 270 267 263 261 257 255 252 250 248 248 249 250 249 247 245
292 291 290 290 292 293 293 293 291 291 291 290 290 290 291 290 288 286 286 286 285 284 282 280 278 276 274 271 268 266 263 260 258 255 252 250 248 247 248 249 249 245 245
294 295 295 295 296 296 294 293 293 291 290 290 291 291 290 287 287 287 287 286 286 284 282 280 277 275 272 269 267 264 260 257 255 253 250 247 246 245 245 245 245 245 243
296 295 294 294 292 293 292 292 291 291 291 290 290 289 289 290 288 287 287 286 285 283 280 279 277 274 272 269 267 263 261 258 253 250 249 246 244 241 240 240 240 241 241
294 294 295 295 296 295 295 294 293 293 294 293 291 290 289 288 289 289 286 284 283 282 281 279 276 273 271 269 267 266 264 260 256 251 248 247 246 244 242 239 238 236 236
296 295 296 297 297 297 297 296 295 295 295 294 292 292 291 290 289 288 287 284 280 279 279 277 273 270 267 265 265 264 260 257 254 251 248 245 243 242 242 241 240 238 235
294 296 296 297 297 298 298 297 298 297 295 294 294 293 293 292 289 287 286 283 280 280 277 274 274 272 268 268 267 264 260 257 253 249 246 245 243 241 241 241 239 237 237
Height
10739 10737 10736 10735 10733 10732 10730 10728 10726 10722 10719 10715 10712 10709 10706 10703 10700 10697 10692 10687 10683 10678 10673 10669 10662 10658 10652 10643 10635 10632 10625 10627 10628 10637 10643 10648 10654 10657 10662 10666 10669 10673 10678
10730 10728 10727 10726 10725 10723 10720 10718 10715 10712 10708 10704 10700 10697 10694 10691 10686 10683 10679 10675 10669 10665 10660 10655 10653 10651 10648 10645 10639 10633 10627 10626 10631 10636 10637 10642 10643 10647 10651 10656 10661 10663 10667
10720 10719 10718 10716 10714 10712 10709 10706 10703 10700 10696 10693 10689 10685 10682 10677 10672 10668 10664 10661 10656 10651 10646 10643 10640 10638 10637 10639 10637 10632 10630 10628 10627 10628 10632 10633 10634 10634 10641 10647 10650 10655 10659
10711 10710 10708 10705 10702 10698 10695 10692 10689 10686 10683 10679 10675 10671 10667 10663 10658 10653 10649 10644 10641 10638 10634 10628 10626 10624 10623 10624 10628 10629 10624 10621 10620 10620 10620 10621 10625 10624 10627 10632 10637 10641 10645
10699 10697 10694 10690 10686 10683 10680 10678 10675 10671 10669 10665 10661 10657 10653 10648 10642 10636 10632 10627 10623 10620 10617 10614 10608 10605 10605 10606 10608 10612 10610 10610 10610 10609 10610 10611 10611 10611 10615 10615 10618 10622 10628
10687 10684 10681 10676 10672 10669 10667 10663 10659 10654 10651 10648 10644 10640 10636 10631 10626 10621 10615 10610 10606 10602 10598 10595 10592 10588 10585 10585 10586 10588 10592 10592 10591 10593 10593 10595 10597 10598 10600 10599 10603 10606 10607
10673 10669 10664 10660 10657 10654 10650 10646 10641 10637 10634 10630 10626 10621 10616 10611 10606 10601 10596 10591 10585 10581 10577 10574 10571 10568 10566 10564 10566 10566 10565 10567 10569 10570 10571 10573 10576 10581 10584 10583 10581 10589 10591
10656 10651 10646 10643 10640 10635 10631 10626 10622 10617 10613 10608 10604 10599 10592 10588 10583 10578 10573 10567 10563 10559 10555 10551 10550 10547 10545 10546 10546 10545 10544 10545 10544 10545 10546 10548 10550 10555 10559 10563 10565 10568 10571
10637 10633 10631 10628 10622 10617 10611 10606 10602 10596 10590 10585 10580 10575 10569 10564 10559 10553 10549 10544 10538 10534 10531 10529 10525 10523 10523 10523 10522 10521 10523 10521 10519 10520 10520 10522 10524 10526 10530 10536 10541 10545 10549
10618 10615 10612 10605 10602 10597 10590 10585 10579 10574 10568 10562 10557 10552 10545 10539 10533 10527 10522 10516 10512 10508 10505 10503 10500 10498 10497 10497 10498 10497 10495 10496 10496 10494 10496 10497 10495 10499 10503 10507 10513 10518 10523
10598 10597 10590 10586 10582 10575 10566 10562 10555 10549 10543 10537 10531 10524 10518 10511 10505 10499 10493 10488 10484 10479 10476 10473 10471 10469 10469 10468 10469 10468 10470 10471 10468 10468 10469 10467 10469 10474 10474 10477 10483 10488 10493
10580 10574 10568 10561 10555 10552 10547 10539 10530 10523 10518 10511 10504 10496 10489 10481 10475 10469 10463 10457 10453 10448 10446 10443 10440 10437 10436 10437 10437 10438 10441 10440 10441 10438 10439 10441 10441 10445 10449 10451 10456 10462 10467
10562 10554 10546 10537 10530 10524 10519 10514 10506 10498 10490 10482 10475 10468 10457 10449 10443 10437 10430 10424 10421 10416 10410 10408 10406 10404 10403 10403 10401 10402 10406 10409 10410 10410 10412 10413 10415 10419 10423 10428 10433 10437 10444
10540 10533 10522 10511 10504 10495 10488 10481 10473 10467 10459 10450 10444 10434 10422 10412 10405 10401 10394 10387 10382 10378 10373 10371 10370 10367 10366 10368 10367 10368 10372 10374 10376 10376 10380 10383 10386 10389 10394 10402 10409 10414 10421
10514 10506 10496 10488 10478 10466 10457 10450 10441 10429 10420 10415 10405 10394 10388 10376 10365 10360 10353 10347 10339 10336 10334 10334 10331 10329 10329 10328 10328 10334 10336 10340 10342 10344 10346 10350 10355 10359 10363 10371 10379 10388 10397
10482 10475 10468 10458 10450 10439 10427 10416 10405 10395 10384 10373 10365 10356 10348 10335 10326 10320 10314 10308 10301 10296 10294 10292 10292 10293 10292 10290 10292 10297 10303 10306 10309 10311 10314 10320 10323 10328 10333 10340 10348 10357 10368
10456 10447 10437 10429 10418 10406 10394 10384 10370 10354 10342 10332 10326 10317 10307 10298 10289 10278 10270 10266 10262 10258 10256 10256 10254 10255 10256 10253 10257 10261 10269 10273 10277 10281 10282 10286 10292 10297 10304 10310 10319 10329 10339
10429 10418 10406 10395 10382 10369 10355 10343 10334 10322 10307 10294 10280 10270 10263 10257 10251 10245 10236 10227 10223 10223 10222 10220 10220 10221 10222 10218 10219 10225 10234 10241 10245 10249 10252 10256 10260 10265 10275 10283 10292 10301 10311
10399 10387 10374 10364 10354 10339 10323 10310 10298 10283 10270 10255 10241 10234 10224 10215 10209 10206 10201 10194 10189 10189 10189 10188 10186 10184 10187 10183 10185 10189 10200 10207 10212 10218 10223 10227 10231 10233 10243 10257 10265 10273 10283
10358 10344 10332 10320 10307 10295 10281 10268 10255 10244 10231 10219 10210 10203 10194 10182 10174 10169 10164 10160 10156 10157 10156 10154 10152 10153 10154 10152 10152 10156 10165 10173 10178 10186 10192 10195 10201 10205 10213 10227 10238 10248 10253
10331 10315 10301 10290 10277 10261 10244 10231 10219 10209 10193 10181 10172 10169 10159 10151 10143 10137 10134 10130 10127 10126 10126 10124 10123 10122 10121 10122 10122 10124 10132 10138 10146 10155 10159 10165 10170 10178 10186 10199 10211 10219 10226
10294 10278 10261 10249 10236 10219 10200 10191 10183 10169 10160 10152 10148 10136 10126 10119 10109 10104 10104 10101 10097 10097 10096 10095 10096 10094 10092 10093 10094 10094 10100 10108 10117 10122 10126 10133 10141 10153 10160 10171 10183 10191 10201
10251 10237 10223 10214 10204 10189 10171 10159 10149 10138 10133 10126 10121 10109 10095 10086 10083 10081 10079 10075 10070 10067 10068 10067 10069 10068 10065 10066 10065 10068 10076 10083 10089 10093 10096 10101 10109 10119 10129 10139 10152 10164 10176
10218 10203 10189 10178 10167 10150 10139 10126 10118 10109 10106 10097 10087 10080 10076 10067 10058 10053 10053 10051 10047 10042 10042 10044 10044 10044 10042 10041 10041 10048 10054 10060 10065 10070 10074 10077 10085 10094 10102 10112 10123 10136 10149
10182 10170 10158 10146 10134 10123 10112 10100 10092 10086 10079 10069 10060 10055 10052 10046 10041 10034 10029 10027 10024 10023 10022 10021 10022 10022 10023 10019 10021 10028 10033 10036 10040 10047 10051 10053 10059 10067 10077 10089 10101 10113 10126
10151 10142 10131 10119 10108 10099 10089 10078 10071 10062 10055 10047 10039 10033 10030 10025 10020 10017 10009 10004 10006 10004 10004 10005 10005 10004 10005 10001 10005 10011 10014 10018 10021 10025 10028 10033 10038 10045 10055 10065 10079 10092 10105